STARLINK-2420, 47831

Orbit data source: Space-Track

STARLINK-2420, 47831 is a payload satellite owned by SpaceX/Seattle (US) in LEO that was launched on Thu, 11 Mar 2021 UTC via an FALCON 9 launch vehicle from the Air Force Eastern Test Range (AFETR). Payload-class satellites include a variety of spacecraft equipped with specific instruments for various scientific and technological missions. These include communications satellites like Starlink; space stations such as the ISS; scientific satellites like the Hubble; Earth observation satellites from companies like Planet Labs, Umbra, and HawkEye 360; GPS; miniature CubeSats for education and research; and military/defense satellites.

Loading next visibility...
Identifier
47831, 2021-018AW
Orbit
LEO
Country
Flag of USUS
Related business
Manufacturer
SpaceX/Seattle
Mission
Operational Commercial Communications
Bus & Motor
STARLINK, Unknown motor
Mass
260 kg wet, ~248 kg dry
Launch date (UTC)
2021-03-11 (5 years ago)
Launch vehicle
FALCON 9
Launch site
Air Force Eastern Test Range (AFETR)
Object type
Payload
Rocket body
Debris
Shape & HBR
Box + 1 Pan, 10.1 m
Radar Cross Section
13.562 m², Large (>1 m²)

Expand to show TLE details & history
Last TLE update: 11 hours ago

TLE from 11 hours ago
0 STARLINK-2420
1 47831U 21018AW  26035.36469163  .00001716  00000-0  13406-3 0  9991
2 47831  53.0552  26.2204 0001430  97.5028 262.6123 15.06410419271834
Epoch: 2026-02-04T08:45Z
TLE epoch observation values (Epoch: 2026-02-04T08:45:09.356Z)
Latitude
-0.00008°
Longitude
120.39903°
Altitude
548.186 km
Speed
7.589 km/s
True Right ascension
01h 44m 52s
True Declination
0° 00' 00"
Sunlit
Object was in daylight at epoch
Visualization orbit readout
Latitude
Unknown
Longitude
Unknown
Altitude
Unknown
Speed
Unknown
Apparent Right ascension
Unknown
Apparent Declination
Unknown
Sunlit
N/A
Visualization observer readout
Local Sidereal Time
21:27:08
Azimuth
Unknown
Elevation
Unknown
Doppler factor
Unknown
Orbital elements
Apogee altitude
548.441 km
Perigee altitude
546.46 km
Semi-major axis
6,925.587 km
Eccentricity
0.00014
Inclination
53.0552°
RAAN
26.2204°
Arg. of periapsis
97.5028°
True anomaly
262.59605°
Mean anomaly
262.6123°
Eccentric anomaly
262.60417°
Mean motion
3.76581 °/min
Orbital period
95.6 mins
BSTAR
0.00013406
Loading maneuver chart data...
Computing Atmospheric mass density...
Loading historical data...
Loading historical data...
Loading historical data...
Loading historical data...
Loading historical data...
Loading historical data...
Loading historical data...

Documentation

Showing up to 5 results
|